Time,TemperatureF,DewpointF,PressureIn,WindDirection,WindDirectionDegrees,WindSpeedMPH,WindSpeedGustMPH,Humidity,HourlyPrecipIn,Conditions,Clouds,dailyrainin,SoftwareType,DateUTC
2013-05-20 00:01:00,59.2,40.0,29.96,South,177,0.0,0.0,49,0.00,,CLR,0.00,VWS V14.01,2013-05-20 04:01:00,
2013-05-20 00:02:00,59.0,39.9,29.96,South,177,0.0,0.0,49,0.00,,CLR,0.00,VWS V14.01,2013-05-20 04:02:00,
2013-05-20 00:07:00,59.0,39.9,29.96,South,177,0.0,0.0,49,0.00,,CLR,0.00,VWS V14.01,2013-05-20 04:07:00,
2013-05-20 00:12:00,59.2,40.0,29.96,South,177,0.0,0.0,49,0.00,,CLR,0.00,VWS V14.01,2013-05-20 04:12:00,
2013-05-20 00:18:00,59.0,39.4,29.96,South,177,0.0,0.0,48,0.00,,CLR,0.00,VWS V14.01,2013-05-20 04:18:00,
2013-05-20 00:23:00,59.0,39.4,29.96,South,177,0.0,0.0,48,0.00,,CLR,0.00,VWS V14.01,2013-05-20 04:23:00,
2013-05-20 00:28:00,59.0,39.4,29.96,South,177,0.0,0.0,48,0.00,,CLR,0.00,VWS V14.01,2013-05-20 04:28:00,
2013-05-20 00:33:00,59.0,39.9,29.96,South,177,0.0,0.0,49,0.00,,CLR,0.00,VWS V14.01,2013-05-20 04:33:00,
2013-05-20 00:38:00,59.0,40.4,29.96,South,177,0.0,0.0,50,0.00,,CLR,0.00,VWS V14.01,2013-05-20 04:38:00,
2013-05-20 00:43:00,59.0,39.9,29.96,South,177,0.0,0.0,49,0.00,,CLR,0.00,VWS V14.01,2013-05-20 04:43:00,
2013-05-20 00:48:00,58.8,39.2,29.96,South,177,0.0,0.0,48,0.00,,CLR,0.00,VWS V14.01,2013-05-20 04:48:00,
2013-05-20 00:53:00,58.8,39.2,29.96,South,177,0.0,0.0,48,0.00,,CLR,0.00,VWS V14.01,2013-05-20 04:53:00,
2013-05-20 00:58:00,58.8,38.7,29.96,South,177,0.0,0.0,47,0.00,,CLR,0.00,VWS V14.01,2013-05-20 04:58:00,
2013-05-20 01:03:00,58.6,37.9,29.96,South,177,0.0,0.0,46,0.00,,,0.00,VWS V14.01,2013-05-20 05:03:00,
2013-05-20 01:08:00,58.6,39.0,29.96,South,177,0.0,0.0,48,0.00,,,0.00,VWS V14.01,2013-05-20 05:08:00,
2013-05-20 01:13:00,58.8,39.7,29.96,South,177,0.0,0.0,49,0.00,,,0.00,VWS V14.01,2013-05-20 05:13:00,
2013-05-20 01:18:00,58.8,39.7,29.96,South,177,0.0,0.0,49,0.00,,,0.00,VWS V14.01,2013-05-20 05:18:00,
2013-05-20 01:23:00,58.8,40.8,29.96,South,177,0.0,0.0,51,0.00,,,0.00,VWS V14.01,2013-05-20 05:23:00,
2013-05-20 01:29:00,59.0,41.9,29.96,South,177,0.0,0.0,53,0.00,,,0.00,VWS V14.01,2013-05-20 05:29:00,
2013-05-20 01:34:00,58.8,40.2,29.93,South,177,0.0,0.0,50,0.00,,,0.00,VWS V14.01,2013-05-20 05:34:00,
2013-05-20 01:39:00,58.8,39.7,29.93,South,177,0.0,0.0,49,0.00,,,0.00,VWS V14.01,2013-05-20 05:39:00,
2013-05-20 01:44:00,58.8,38.7,29.93,South,177,0.0,0.0,47,0.00,,,0.00,VWS V14.01,2013-05-20 05:44:00,
2013-05-20 01:49:00,58.8,39.2,29.93,South,177,0.0,0.0,48,0.00,,,0.00,VWS V14.01,2013-05-20 05:49:00,
2013-05-20 01:54:00,58.8,40.2,29.93,South,177,0.0,0.0,50,0.00,,,0.00,VWS V14.01,2013-05-20 05:54:00,
2013-05-20 01:59:00,59.0,41.9,29.93,South,177,0.0,0.0,53,0.00,,,0.00,VWS V14.01,2013-05-20 05:59:00,
2013-05-20 02:04:00,59.0,42.9,29.93,South,177,0.0,0.0,55,0.00,,,0.00,VWS V14.01,2013-05-20 06:04:00,
2013-05-20 02:09:00,59.0,42.9,29.93,South,177,0.0,0.0,55,0.00,,,0.00,VWS V14.01,2013-05-20 06:09:00,
2013-05-20 02:15:00,59.0,43.8,29.93,South,177,0.0,0.0,57,0.00,,,0.00,VWS V14.01,2013-05-20 06:15:00,
2013-05-20 02:20:00,59.2,44.0,29.93,South,177,0.0,0.0,57,0.00,,,0.00,VWS V14.01,2013-05-20 06:20:00,
2013-05-20 02:25:00,59.2,43.5,29.93,South,177,0.0,0.0,56,0.00,,,0.00,VWS V14.01,2013-05-20 06:25:00,
2013-05-20 02:30:00,59.0,42.4,29.93,South,177,0.0,0.0,54,0.00,,,0.00,VWS V14.01,2013-05-20 06:30:00,
2013-05-20 02:35:00,58.8,39.7,29.93,South,177,0.0,0.0,49,0.00,,,0.00,VWS V14.01,2013-05-20 06:35:00,
2013-05-20 02:40:00,58.6,37.4,29.93,South,177,0.0,0.0,45,0.00,,,0.00,VWS V14.01,2013-05-20 06:40:00,
2013-05-20 02:45:00,58.5,37.2,29.93,South,177,0.0,0.0,45,0.00,,,0.00,VWS V14.01,2013-05-20 06:45:00,
2013-05-20 02:50:00,58.3,36.5,29.93,South,177,0.0,0.0,44,0.00,,,0.00,VWS V14.01,2013-05-20 06:50:00,
2013-05-20 02:55:00,58.1,35.7,29.93,South,177,0.0,0.0,43,0.00,,,0.00,VWS V14.01,2013-05-20 06:55:00,
2013-05-20 03:00:00,58.1,38.5,29.93,South,177,0.0,0.0,48,0.00,,,0.00,VWS V14.01,2013-05-20 07:00:00,
2013-05-20 03:05:00,58.3,41.7,29.93,South,177,0.0,0.0,54,0.00,,,0.00,VWS V14.01,2013-05-20 07:05:00,
2013-05-20 03:11:00,58.6,43.5,29.93,South,177,0.0,0.0,57,0.00,,,0.00,VWS V14.01,2013-05-20 07:11:00,
2013-05-20 03:16:00,59.0,44.3,29.93,South,177,0.0,0.0,58,0.00,,,0.00,VWS V14.01,2013-05-20 07:16:00,
2013-05-20 03:21:00,59.4,45.5,29.96,South,177,0.0,0.0,60,0.00,,,0.00,VWS V14.01,2013-05-20 07:21:00,
2013-05-20 03:26:00,59.5,46.5,29.96,South,177,0.0,0.0,62,0.00,,,0.00,VWS V14.01,2013-05-20 07:26:00,
2013-05-20 03:31:00,59.5,47.0,29.96,South,177,0.0,0.0,63,0.00,,,0.00,VWS V14.01,2013-05-20 07:31:00,
2013-05-20 03:36:00,59.7,47.5,29.96,South,177,0.0,0.0,64,0.00,,,0.00,VWS V14.01,2013-05-20 07:36:00,
2013-05-20 03:41:00,59.7,47.1,29.96,South,177,0.0,0.0,63,0.00,,,0.00,VWS V14.01,2013-05-20 07:41:00,
2013-05-20 03:46:00,59.7,46.7,29.96,South,177,0.0,0.0,62,0.00,,,0.00,VWS V14.01,2013-05-20 07:46:00,
2013-05-20 03:51:00,59.7,45.4,29.96,South,177,0.0,0.0,59,0.00,,,0.00,VWS V14.01,2013-05-20 07:51:00,
2013-05-20 03:56:00,59.7,44.9,29.96,South,177,0.0,0.0,58,0.00,,,0.00,VWS V14.01,2013-05-20 07:56:00,
2013-05-20 04:01:00,59.5,44.3,29.96,South,177,0.0,0.0,57,0.00,,,0.00,VWS V14.01,2013-05-20 08:01:00,
2013-05-20 04:06:00,59.4,42.7,29.96,South,177,0.0,0.0,54,0.00,,,0.00,VWS V14.01,2013-05-20 08:06:00,
2013-05-20 04:11:00,59.2,40.6,29.96,South,177,0.0,0.0,50,0.00,,,0.00,VWS V14.01,2013-05-20 08:11:00,
2013-05-20 04:17:00,59.2,40.6,29.96,South,177,0.0,0.0,50,0.00,,,0.00,VWS V14.01,2013-05-20 08:17:00,
2013-05-20 04:22:00,59.0,38.8,29.96,South,177,0.0,0.0,47,0.00,,,0.00,VWS V14.01,2013-05-20 08:22:00,
2013-05-20 04:27:00,58.8,39.2,29.96,South,177,0.0,0.0,48,0.00,,,0.00,VWS V14.01,2013-05-20 08:27:00,
2013-05-20 04:32:00,59.0,42.4,29.96,South,177,0.0,0.0,54,0.00,,,0.00,VWS V14.01,2013-05-20 08:32:00,
2013-05-20 04:37:00,59.0,41.9,29.96,South,177,0.0,0.0,53,0.00,,,0.00,VWS V14.01,2013-05-20 08:37:00,
2013-05-20 04:42:00,59.0,40.4,29.96,South,177,0.0,0.0,50,0.00,,,0.00,VWS V14.01,2013-05-20 08:42:00,
2013-05-20 04:47:00,58.8,38.7,29.96,South,177,0.0,0.0,47,0.00,,,0.00,VWS V14.01,2013-05-20 08:47:00,
2013-05-20 04:52:00,58.5,37.2,29.93,South,177,0.0,0.0,45,0.00,,,0.00,VWS V14.01,2013-05-20 08:52:00,
2013-05-20 04:57:00,58.5,37.2,29.93,South,177,0.0,0.0,45,0.00,,,0.00,VWS V14.01,2013-05-20 08:57:00,
2013-05-20 05:02:00,58.5,38.3,29.93,South,177,0.0,0.0,47,0.00,,,0.00,VWS V14.01,2013-05-20 09:02:00,
2013-05-20 05:07:00,58.5,39.4,29.93,South,177,0.0,0.0,49,0.00,,,0.00,VWS V14.01,2013-05-20 09:07:00,
2013-05-20 05:12:00,58.5,39.4,29.93,South,177,0.0,0.0,49,0.00,,,0.00,VWS V14.01,2013-05-20 09:12:00,
2013-05-20 05:17:00,58.3,39.2,29.93,South,177,0.0,0.0,49,0.00,,,0.00,VWS V14.01,2013-05-20 09:17:00,
2013-05-20 05:22:00,58.5,41.9,29.93,South,177,0.0,0.0,54,0.00,,,0.00,VWS V14.01,2013-05-20 09:22:00,
2013-05-20 05:27:00,58.3,40.8,29.93,South,177,0.0,0.0,52,0.00,,,0.00,VWS V14.01,2013-05-20 09:27:00,
2013-05-20 05:32:00,58.3,40.2,29.93,South,177,0.0,0.0,51,0.00,,,0.00,VWS V14.01,2013-05-20 09:32:00,
2013-05-20 05:38:00,58.3,39.2,29.93,South,177,0.0,0.0,49,0.00,,,0.00,VWS V14.01,2013-05-20 09:38:00,
2013-05-20 05:43:00,58.3,39.7,29.93,South,177,0.0,0.0,50,0.00,,,0.00,VWS V14.01,2013-05-20 09:43:00,
2013-05-20 05:48:00,58.5,43.3,29.93,NE,43,0.0,0.0,57,0.00,,,0.00,VWS V14.01,2013-05-20 09:48:00,
2013-05-20 05:53:00,58.6,43.9,29.93,NE,43,0.0,0.0,58,0.00,,,0.00,VWS V14.01,2013-05-20 09:53:00,
2013-05-20 05:58:00,58.5,43.3,29.93,NE,43,0.0,0.0,57,0.00,,,0.00,VWS V14.01,2013-05-20 09:58:00,
2013-05-20 06:03:00,58.3,41.2,29.93,NE,43,0.0,0.0,53,0.00,,,0.00,VWS V14.01,2013-05-20 10:03:00,
2013-05-20 06:08:00,57.9,37.8,29.93,NE,43,0.0,0.0,47,0.00,,,0.00,VWS V14.01,2013-05-20 10:08:00,
2013-05-20 06:13:00,57.9,37.3,29.93,NE,43,0.0,0.0,46,0.00,,,0.00,VWS V14.01,2013-05-20 10:13:00,
2013-05-20 06:18:00,57.7,37.7,29.93,NE,43,0.0,0.0,47,0.00,,,0.00,VWS V14.01,2013-05-20 10:18:00,
2013-05-20 06:23:00,57.9,39.4,29.93,NE,43,0.0,0.0,50,0.00,,,0.00,VWS V14.01,2013-05-20 10:23:00,
2013-05-20 06:28:00,57.9,39.4,29.93,NE,43,0.0,0.0,50,0.00,,,0.00,VWS V14.01,2013-05-20 10:28:00,
2013-05-20 06:33:00,57.9,39.4,29.93,NE,43,0.0,0.0,50,0.00,,,0.00,VWS V14.01,2013-05-20 10:33:00,
2013-05-20 06:39:00,57.7,37.7,29.93,NE,43,0.0,0.0,47,0.00,,,0.00,VWS V14.01,2013-05-20 10:39:00,
2013-05-20 06:44:00,57.6,37.0,29.93,NE,43,0.0,0.0,46,0.00,,,0.00,VWS V14.01,2013-05-20 10:44:00,
2013-05-20 06:49:00,57.6,38.0,29.93,NE,43,0.0,0.0,48,0.00,,,0.00,VWS V14.01,2013-05-20 10:49:00,
2013-05-20 06:54:00,57.7,41.2,29.93,NE,43,0.0,0.0,54,0.00,,,0.00,VWS V14.01,2013-05-20 10:54:00,
2013-05-20 06:59:00,58.1,43.0,29.93,NE,43,0.0,0.0,57,0.00,,,0.00,VWS V14.01,2013-05-20 10:59:00,
2013-05-20 07:04:00,58.1,42.5,29.96,NE,43,0.0,0.0,56,0.00,,,0.00,VWS V14.01,2013-05-20 11:04:00,
2013-05-20 07:09:00,58.3,42.7,29.96,NE,43,0.0,0.0,56,0.00,,,0.00,VWS V14.01,2013-05-20 11:09:00,
2013-05-20 07:14:00,58.3,42.7,29.96,NE,43,0.0,0.0,56,0.00,,,0.00,VWS V14.01,2013-05-20 11:14:00,
2013-05-20 07:19:00,58.5,42.4,29.96,NE,43,3.1,3.1,55,0.00,,,0.00,VWS V14.01,2013-05-20 11:19:00,
2013-05-20 07:24:00,58.5,43.8,29.96,NE,52,0.0,3.6,58,0.00,,,0.00,VWS V14.01,2013-05-20 11:24:00,
2013-05-20 07:29:00,58.6,44.4,29.96,NE,52,0.0,0.0,59,0.00,,,0.00,VWS V14.01,2013-05-20 11:29:00,
2013-05-20 07:34:00,58.8,44.1,29.96,NE,52,0.0,0.0,58,0.00,,,0.00,VWS V14.01,2013-05-20 11:34:00,
2013-05-20 07:40:00,58.8,44.1,29.96,NE,52,0.0,0.0,58,0.00,,,0.00,VWS V14.01,2013-05-20 11:40:00,
2013-05-20 07:45:00,59.0,44.3,29.96,NE,52,0.0,0.0,58,0.00,,,0.00,VWS V14.01,2013-05-20 11:45:00,
2013-05-20 07:50:00,59.2,43.5,29.96,NE,52,0.0,0.0,56,0.00,,,0.00,VWS V14.01,2013-05-20 11:50:00,
2013-05-20 07:55:00,59.2,43.0,29.96,NE,52,0.0,0.0,55,0.00,,,0.00,VWS V14.01,2013-05-20 11:55:00,
2013-05-20 08:00:00,59.4,43.2,29.96,NE,52,0.0,0.0,55,0.00,,,0.00,VWS V14.01,2013-05-20 12:00:00,
2013-05-20 08:05:00,59.5,42.9,29.96,NE,52,0.0,0.0,54,0.00,,,0.00,VWS V14.01,2013-05-20 12:05:00,
2013-05-20 08:10:00,59.7,43.1,29.96,NE,52,0.0,0.0,54,0.00,,,0.00,VWS V14.01,2013-05-20 12:10:00,
2013-05-20 08:15:00,59.7,43.1,29.96,NE,52,0.0,0.0,54,0.00,,,0.00,VWS V14.01,2013-05-20 12:15:00,
2013-05-20 08:20:00,60.1,43.4,29.96,NE,52,0.0,0.0,54,0.00,,,0.00,VWS V14.01,2013-05-20 12:20:00,
2013-05-20 08:25:00,60.3,43.6,29.96,NE,52,0.0,0.0,54,0.00,,,0.00,VWS V14.01,2013-05-20 12:25:00,
2013-05-20 08:31:00,60.3,43.1,29.96,NE,52,0.0,0.0,53,0.00,,,0.00,VWS V14.01,2013-05-20 12:31:00,
2013-05-20 08:36:00,60.4,43.2,29.96,NE,52,0.0,0.0,53,0.00,,,0.00,VWS V14.01,2013-05-20 12:36:00,
2013-05-20 08:41:00,60.6,42.4,29.96,NE,52,0.0,0.0,51,0.00,,,0.00,VWS V14.01,2013-05-20 12:41:00,
2013-05-20 08:46:00,60.8,38.8,29.96,NE,52,0.0,0.0,44,0.00,,,0.00,VWS V14.01,2013-05-20 12:46:00,
2013-05-20 08:51:00,61.5,38.2,29.99,NE,52,0.0,0.0,42,0.00,,,0.00,VWS V14.01,2013-05-20 12:51:00,
2013-05-20 08:56:00,61.7,37.8,29.99,NE,52,0.0,0.0,41,0.00,,,0.00,VWS V14.01,2013-05-20 12:56:00,
2013-05-20 09:01:00,62.2,40.1,29.99,NE,52,0.0,0.0,44,0.00,,BKN007,0.00,VWS V14.01,2013-05-20 13:01:00,
2013-05-20 09:06:00,62.6,39.2,29.99,NE,52,0.0,0.0,42,0.00,,BKN007,0.00,VWS V14.01,2013-05-20 13:06:00,
2013-05-20 09:11:00,63.1,39.7,29.99,NE,52,0.0,0.0,42,0.00,,BKN007,0.00,VWS V14.01,2013-05-20 13:11:00,
2013-05-20 09:16:00,63.3,39.9,29.99,NE,52,0.0,0.0,42,0.00,,BKN007,0.00,VWS V14.01,2013-05-20 13:16:00,
2013-05-20 09:21:00,63.9,40.3,29.99,NE,52,0.0,0.0,42,0.00,,BKN007,0.00,VWS V14.01,2013-05-20 13:21:00,
2013-05-20 09:26:00,64.4,40.8,29.99,NE,52,0.0,0.0,42,0.00,,BKN007,0.00,VWS V14.01,2013-05-20 13:26:00,
2013-05-20 09:32:00,64.9,40.7,29.99,SSE,168,0.0,0.0,41,0.00,,BKN007,0.00,VWS V14.01,2013-05-20 13:32:00,
2013-05-20 09:37:00,65.7,40.7,29.99,SSE,168,0.0,0.0,40,0.00,,BKN007,0.00,VWS V14.01,2013-05-20 13:37:00,
2013-05-20 09:42:00,66.7,41.0,29.99,South,177,0.0,0.0,39,0.00,,BKN007,0.00,VWS V14.01,2013-05-20 13:42:00,
2013-05-20 09:47:00,67.5,41.0,29.99,South,177,0.0,0.0,38,0.00,,BKN007,0.00,VWS V14.01,2013-05-20 13:47:00,
2013-05-20 09:52:00,67.5,40.3,29.99,South,176,0.0,0.0,37,0.00,,BKN007,0.00,VWS V14.01,2013-05-20 13:52:00,
2013-05-20 09:57:00,66.9,39.1,29.99,SW,214,0.0,0.0,36,0.00,,BKN007,0.00,VWS V14.01,2013-05-20 13:57:00,
2013-05-20 10:02:00,66.9,39.8,29.96,SW,230,0.0,0.0,37,0.00,,BKN013,0.00,VWS V14.01,2013-05-20 14:02:00,
2013-05-20 10:07:00,67.3,40.8,29.96,SW,230,2.2,2.7,38,0.00,,BKN013,0.00,VWS V14.01,2013-05-20 14:07:00,
2013-05-20 10:12:00,68.0,42.1,29.96,SW,230,0.0,0.0,39,0.00,,BKN013,0.00,VWS V14.01,2013-05-20 14:12:00,
2013-05-20 10:17:00,69.3,42.6,29.99,SW,230,0.0,2.7,38,0.00,,BKN013,0.00,VWS V14.01,2013-05-20 14:17:00,
2013-05-20 10:23:00,71.1,43.5,29.99,SW,230,0.0,0.0,37,0.00,,BKN013,0.00,VWS V14.01,2013-05-20 14:23:00,
2013-05-20 10:28:00,72.3,43.2,29.99,SE,143,2.7,3.1,35,0.00,,BKN013,0.00,VWS V14.01,2013-05-20 14:28:00,
2013-05-20 10:33:00,73.0,43.0,29.99,West,272,2.7,2.7,34,0.00,,BKN013,0.00,VWS V14.01,2013-05-20 14:33:00,
2013-05-20 10:38:00,73.8,42.1,29.99,South,189,0.0,0.0,32,0.00,,BKN013,0.00,VWS V14.01,2013-05-20 14:38:00,
2013-05-20 10:43:00,74.5,41.0,29.99,SSW,194,0.0,0.0,30,0.00,,BKN013,0.00,VWS V14.01,2013-05-20 14:43:00,
2013-05-20 10:48:00,75.6,42.8,29.99,South,176,2.7,3.1,31,0.00,,BKN013,0.00,VWS V14.01,2013-05-20 14:48:00,
2013-05-20 10:53:00,76.3,38.9,29.99,ENE,75,0.0,2.2,26,0.00,,BKN013,0.00,VWS V14.01,2013-05-20 14:53:00,
2013-05-20 10:58:00,77.4,39.8,29.99,SSE,164,0.0,0.0,26,0.00,,BKN013,0.00,VWS V14.01,2013-05-20 14:58:00,
2013-05-20 11:03:00,77.7,30.9,29.99,ENE,75,3.1,3.1,18,0.00,,CLR,0.00,VWS V14.01,2013-05-20 15:03:00,
2013-05-20 11:09:00,78.3,33.9,29.99,South,188,3.6,3.6,20,0.00,,CLR,0.00,VWS V14.01,2013-05-20 15:09:00,
2013-05-20 11:14:00,79.0,27.4,29.99,WSW,238,2.2,5.8,15,0.00,,CLR,0.00,VWS V14.01,2013-05-20 15:14:00,
2013-05-20 11:19:00,80.4,35.7,29.99,SSW,198,3.1,3.1,20,0.00,,CLR,0.00,VWS V14.01,2013-05-20 15:19:00,
2013-05-20 11:24:00,81.1,27.5,29.99,SW,218,0.0,0.0,14,0.00,,CLR,0.00,VWS V14.01,2013-05-20 15:24:00,
2013-05-20 11:29:00,81.7,27.9,29.99,SSW,206,3.1,3.1,14,0.00,,CLR,0.00,VWS V14.01,2013-05-20 15:29:00,
2013-05-20 11:34:00,81.7,27.9,29.99,SW,229,3.1,3.1,14,0.00,,CLR,0.00,VWS V14.01,2013-05-20 15:34:00,
2013-05-20 11:39:00,81.9,28.0,29.99,WNW,299,0.0,2.7,14,0.00,,CLR,0.00,VWS V14.01,2013-05-20 15:39:00,
2013-05-20 11:44:00,82.6,28.6,29.99,West,275,0.0,0.0,14,0.00,,CLR,0.00,VWS V14.01,2013-05-20 15:44:00,
2013-05-20 11:49:00,83.1,29.0,29.99,SSE,160,0.0,4.0,14,0.00,,CLR,0.00,VWS V14.01,2013-05-20 15:49:00,
2013-05-20 11:55:00,83.5,29.3,29.99,SSW,193,3.6,3.6,14,0.00,,CLR,0.00,VWS V14.01,2013-05-20 15:55:00,
2013-05-20 12:00:00,83.7,29.5,29.99,West,259,2.7,4.9,14,0.00,,CLR,0.00,VWS V14.01,2013-05-20 16:00:00,
2013-05-20 12:05:00,83.7,29.5,29.99,SE,129,4.9,4.9,14,0.00,,BKN085,0.00,VWS V14.01,2013-05-20 16:05:00,
2013-05-20 12:10:00,84.0,29.8,29.99,ENE,70,2.2,3.1,14,0.00,,BKN085,0.00,VWS V14.01,2013-05-20 16:10:00,
2013-05-20 12:15:00,84.4,28.2,29.99,ESE,109,4.0,4.0,13,0.00,,BKN085,0.00,VWS V14.01,2013-05-20 16:15:00,
2013-05-20 12:20:00,84.7,28.5,29.99,ESE,107,2.2,2.2,13,0.00,,BKN085,0.00,VWS V14.01,2013-05-20 16:20:00,
2013-05-20 12:25:00,84.9,28.6,29.99,SSW,207,3.1,3.1,13,0.00,,BKN085,0.00,VWS V14.01,2013-05-20 16:25:00,
2013-05-20 12:30:00,83.3,29.2,29.99,SSE,164,3.6,5.4,14,0.00,,BKN085,0.00,VWS V14.01,2013-05-20 16:30:00,
2013-05-20 12:35:00,81.0,27.3,29.99,WSW,250,2.7,4.0,14,0.00,,BKN085,0.00,VWS V14.01,2013-05-20 16:35:00,
2013-05-20 12:40:00,78.4,27.0,29.99,SSW,193,0.0,2.7,15,0.00,,BKN085,0.00,VWS V14.01,2013-05-20 16:40:00,
2013-05-20 12:46:00,79.2,27.6,29.99,SSW,206,3.6,3.6,15,0.00,,BKN085,0.00,VWS V14.01,2013-05-20 16:46:00,
2013-05-20 12:51:00,80.6,27.0,29.99,SE,133,2.7,3.6,14,0.00,,BKN085,0.00,VWS V14.01,2013-05-20 16:51:00,
2013-05-20 12:56:00,81.5,27.8,29.99,SSW,208,2.7,2.7,14,0.00,,BKN085,0.00,VWS V14.01,2013-05-20 16:56:00,
2013-05-20 13:01:00,81.7,27.9,29.99,SSE,147,2.2,3.6,14,0.00,,CLR,0.00,VWS V14.01,2013-05-20 17:01:00,
2013-05-20 13:06:00,80.8,27.2,29.99,WSW,245,2.7,3.1,14,0.00,,CLR,0.00,VWS V14.01,2013-05-20 17:06:00,
2013-05-20 13:11:00,82.0,28.2,29.99,East,83,3.1,3.1,14,0.00,,CLR,0.00,VWS V14.01,2013-05-20 17:11:00,
2013-05-20 13:16:00,84.0,29.8,29.99,SSW,197,3.6,3.6,14,0.00,,CLR,0.00,VWS V14.01,2013-05-20 17:16:00,
2013-05-20 13:21:00,84.4,28.2,29.99,SSW,199,2.7,2.7,13,0.00,,CLR,0.00,VWS V14.01,2013-05-20 17:21:00,
2013-05-20 13:26:00,85.3,28.9,29.99,SSE,157,2.7,2.7,13,0.00,,CLR,0.00,VWS V14.01,2013-05-20 17:26:00,
2013-05-20 13:31:00,86.2,29.6,29.99,West,261,4.0,4.9,13,0.00,,CLR,0.00,VWS V14.01,2013-05-20 17:31:00,
2013-05-20 13:36:00,86.4,29.8,29.99,South,188,2.2,2.7,13,0.00,,CLR,0.00,VWS V14.01,2013-05-20 17:36:00,
2013-05-20 13:41:00,86.7,30.0,29.99,SW,236,6.3,6.3,13,0.00,,CLR,0.00,VWS V14.01,2013-05-20 17:41:00,
2013-05-20 13:47:00,86.9,30.2,29.99,SSW,207,0.0,4.9,13,0.00,,CLR,0.00,VWS V14.01,2013-05-20 17:47:00,
2013-05-20 13:52:00,88.2,31.2,29.99,SSE,157,3.6,3.6,13,0.00,,CLR,0.00,VWS V14.01,2013-05-20 17:52:00,
2013-05-20 13:57:00,88.7,31.6,29.99,SSW,207,2.7,3.6,13,0.00,,CLR,0.00,VWS V14.01,2013-05-20 17:57:00,
2013-05-20 14:02:00,87.3,30.5,29.99,WSW,237,5.4,5.4,13,0.00,,CLR,0.00,VWS V14.01,2013-05-20 18:02:00,
2013-05-20 14:07:00,86.7,30.0,29.99,SW,233,4.5,6.3,13,0.00,,CLR,0.00,VWS V14.01,2013-05-20 18:07:00,
2013-05-20 14:12:00,87.3,30.5,29.99,WNW,298,2.2,2.7,13,0.00,,CLR,0.00,VWS V14.01,2013-05-20 18:12:00,
2013-05-20 14:17:00,87.8,30.9,29.96,West,265,3.1,3.1,13,0.00,,CLR,0.00,VWS V14.01,2013-05-20 18:17:00,
2013-05-20 14:23:00,88.3,31.3,29.96,East,99,0.0,5.8,13,0.00,,CLR,0.00,VWS V14.01,2013-05-20 18:23:00,
2013-05-20 14:28:00,88.9,31.7,29.96,ENE,65,2.2,5.4,13,0.00,,CLR,0.00,VWS V14.01,2013-05-20 18:28:00,
2013-05-20 14:33:00,89.2,32.0,29.96,South,170,4.0,4.0,13,0.00,,CLR,0.00,VWS V14.01,2013-05-20 18:33:00,
2013-05-20 14:38:00,88.0,31.0,29.96,SSE,155,2.2,5.4,13,0.00,,CLR,0.00,VWS V14.01,2013-05-20 18:38:00,
2013-05-20 14:43:00,86.0,29.5,29.96,SSW,210,0.0,4.9,13,0.00,,CLR,0.00,VWS V14.01,2013-05-20 18:43:00,
2013-05-20 14:48:00,84.2,28.1,29.96,SSE,160,2.7,3.6,13,0.00,,CLR,0.00,VWS V14.01,2013-05-20 18:48:00,
2013-05-20 14:53:00,83.1,29.0,29.96,South,173,0.0,4.9,14,0.00,,CLR,0.00,VWS V14.01,2013-05-20 18:53:00,
2013-05-20 14:58:00,83.8,29.6,29.96,WSW,247,3.1,3.1,14,0.00,,CLR,0.00,VWS V14.01,2013-05-20 18:58:00,
2013-05-20 15:03:00,86.7,30.0,29.96,SW,236,0.0,0.0,13,0.00,,SCT060,0.00,VWS V14.01,2013-05-20 19:03:00,
2013-05-20 15:08:00,87.8,30.9,29.96,SSE,154,2.7,3.6,13,0.00,,SCT060,0.00,VWS V14.01,2013-05-20 19:08:00,
2013-05-20 15:13:00,87.1,30.3,29.96,South,175,0.0,0.0,13,0.00,,SCT060,0.00,VWS V14.01,2013-05-20 19:13:00,
2013-05-20 15:18:00,88.3,31.3,29.96,WSW,247,5.4,5.4,13,0.00,,SCT060,0.00,VWS V14.01,2013-05-20 19:18:00,
2013-05-20 15:23:00,87.1,30.3,29.96,SE,143,3.6,3.6,13,0.00,,SCT060,0.00,VWS V14.01,2013-05-20 19:23:00,
2013-05-20 15:29:00,87.4,30.6,29.96,SE,141,3.1,3.6,13,0.00,,SCT060,0.00,VWS V14.01,2013-05-20 19:29:00,
2013-05-20 15:34:00,85.6,29.2,29.96,SSW,204,2.7,3.6,13,0.00,,SCT060,0.00,VWS V14.01,2013-05-20 19:34:00,
2013-05-20 15:39:00,83.1,29.0,29.96,East,97,3.1,3.1,14,0.00,,SCT060,0.00,VWS V14.01,2013-05-20 19:39:00,
2013-05-20 15:44:00,83.5,29.3,29.96,South,172,3.6,3.6,14,0.00,,SCT060,0.00,VWS V14.01,2013-05-20 19:44:00,
2013-05-20 15:49:00,82.4,28.5,29.96,West,266,4.0,4.0,14,0.00,,SCT060,0.00,VWS V14.01,2013-05-20 19:49:00,
2013-05-20 15:54:00,79.2,27.6,29.96,South,190,4.9,4.9,15,0.00,,SCT060,0.00,VWS V14.01,2013-05-20 19:54:00,
2013-05-20 15:59:00,76.3,25.3,29.96,SSW,208,0.0,2.2,15,0.00,,SCT060,0.00,VWS V14.01,2013-05-20 19:59:00,
2013-05-20 16:04:00,73.9,25.0,29.96,West,278,3.6,5.8,16,0.00,,BKN050,0.00,VWS V14.01,2013-05-20 20:04:00,
2013-05-20 16:10:00,72.0,23.4,29.96,NE,46,2.7,2.7,16,0.00,,BKN050,0.00,VWS V14.01,2013-05-20 20:10:00,
2013-05-20 16:15:00,69.4,26.7,29.96,SSE,149,2.7,2.7,20,0.04,,BKN050,0.04,VWS V14.01,2013-05-20 20:15:00,
2013-05-20 16:20:00,67.3,24.9,29.99,WNW,301,2.7,2.7,20,0.28,,BKN050,0.28,VWS V14.01,2013-05-20 20:20:00,
2013-05-20 16:25:00,65.5,26.7,29.99,West,281,3.1,4.0,23,0.43,,BKN050,0.43,VWS V14.01,2013-05-20 20:25:00,
2013-05-20 16:30:00,64.4,26.9,29.99,NNE,31,2.7,3.6,24,0.59,,BKN050,0.59,VWS V14.01,2013-05-20 20:30:00,
2013-05-20 16:35:00,63.5,26.1,29.96,NNE,31,0.0,0.0,24,0.59,,BKN050,0.59,VWS V14.01,2013-05-20 20:35:00,
2013-05-20 16:40:00,63.1,25.8,29.96,NNE,31,0.0,0.0,24,0.63,,BKN050,0.63,VWS V14.01,2013-05-20 20:40:00,
2013-05-20 16:45:00,63.0,26.6,29.96,NNE,31,0.0,0.0,25,0.63,,BKN050,0.63,VWS V14.01,2013-05-20 20:45:00,
2013-05-20 16:50:00,62.6,29.1,29.96,NNE,28,2.2,2.2,28,0.63,,BKN050,0.63,VWS V14.01,2013-05-20 20:50:00,
2013-05-20 16:55:00,62.6,30.8,29.96,NNE,28,2.7,2.7,30,0.63,,BKN050,0.63,VWS V14.01,2013-05-20 20:55:00,
2013-05-20 17:01:00,62.6,30.8,29.96,NNE,28,0.0,0.0,30,0.63,,SCT065,0.63,VWS V14.01,2013-05-20 21:01:00,
2013-05-20 17:06:00,62.8,30.9,29.96,NNE,28,0.0,0.0,30,0.63,,SCT065,0.63,VWS V14.01,2013-05-20 21:06:00,
2013-05-20 17:11:00,63.0,31.9,29.96,NNE,28,0.0,0.0,31,0.63,,SCT065,0.63,VWS V14.01,2013-05-20 21:11:00,
2013-05-20 17:16:00,63.1,34.3,29.96,NNE,28,2.2,2.7,34,0.59,,SCT065,0.63,VWS V14.01,2013-05-20 21:16:00,
2013-05-20 17:21:00,63.1,33.6,29.96,NNE,28,0.0,0.0,33,0.31,,SCT065,0.63,VWS V14.01,2013-05-20 21:21:00,
2013-05-20 17:26:00,63.3,33.8,29.96,NNE,28,0.0,0.0,33,0.12,,SCT065,0.63,VWS V14.01,2013-05-20 21:26:00,
2013-05-20 17:31:00,63.5,33.9,29.96,NNE,28,0.0,0.0,33,0.04,,SCT065,0.63,VWS V14.01,2013-05-20 21:31:00,
2013-05-20 17:36:00,63.7,34.8,29.96,NNE,28,0.0,0.0,34,0.00,,SCT065,0.63,VWS V14.01,2013-05-20 21:36:00,
2013-05-20 17:41:00,63.9,35.0,29.96,NNE,28,0.0,0.0,34,0.00,,SCT065,0.63,VWS V14.01,2013-05-20 21:41:00,
2013-05-20 17:46:00,63.9,35.0,29.96,NNE,28,0.0,0.0,34,0.00,,SCT065,0.63,VWS V14.01,2013-05-20 21:46:00,
2013-05-20 17:51:00,64.0,35.1,29.99,NNE,28,0.0,0.0,34,0.00,,SCT065,0.63,VWS V14.01,2013-05-20 21:51:00,
2013-05-20 17:57:00,64.0,35.1,29.99,NNE,28,0.0,0.0,34,0.00,,SCT065,0.63,VWS V14.01,2013-05-20 21:57:00,
2013-05-20 18:02:00,64.0,35.1,29.96,NNE,28,0.0,0.0,34,0.00,,CLR,0.63,VWS V14.01,2013-05-20 22:02:00,
2013-05-20 18:07:00,64.2,36.0,29.96,NNE,28,0.0,0.0,35,0.00,,CLR,0.63,VWS V14.01,2013-05-20 22:07:00,
2013-05-20 18:12:00,64.0,35.9,29.96,NNE,28,0.0,0.0,35,0.00,,CLR,0.63,VWS V14.01,2013-05-20 22:12:00,
2013-05-20 18:17:00,64.0,35.9,29.96,NNE,28,0.0,0.0,35,0.00,,CLR,0.63,VWS V14.01,2013-05-20 22:17:00,
2013-05-20 18:22:00,64.2,36.0,29.96,NNE,28,0.0,0.0,35,0.00,,CLR,0.63,VWS V14.01,2013-05-20 22:22:00,
2013-05-20 18:27:00,64.2,36.0,29.96,NNE,28,0.0,0.0,35,0.00,,CLR,0.63,VWS V14.01,2013-05-20 22:27:00,
2013-05-20 18:33:00,64.2,36.0,29.96,NNE,28,0.0,0.0,35,0.00,,CLR,0.63,VWS V14.01,2013-05-20 22:33:00,
2013-05-20 18:38:00,64.2,36.0,29.96,NNE,28,0.0,0.0,35,0.00,,CLR,0.63,VWS V14.01,2013-05-20 22:38:00,
2013-05-20 18:43:00,64.2,36.0,29.96,NNE,28,0.0,0.0,35,0.00,,CLR,0.63,VWS V14.01,2013-05-20 22:43:00,
2013-05-20 18:48:00,64.2,36.0,29.96,NNE,28,0.0,0.0,35,0.00,,CLR,0.63,VWS V14.01,2013-05-20 22:48:00,
2013-05-20 18:53:00,64.2,36.0,29.96,NNE,28,0.0,0.0,35,0.00,,CLR,0.63,VWS V14.01,2013-05-20 22:53:00,
2013-05-20 18:58:00,64.2,36.0,29.96,NNE,28,0.0,0.0,35,0.00,,CLR,0.63,VWS V14.01,2013-05-20 22:58:00,
2013-05-20 19:03:00,64.2,36.0,29.96,NNE,28,0.0,0.0,35,0.00,,CLR,0.63,VWS V14.01,2013-05-20 23:03:00,
2013-05-20 19:08:00,64.2,36.7,29.96,NNE,28,0.0,0.0,36,0.00,,CLR,0.63,VWS V14.01,2013-05-20 23:08:00,
2013-05-20 19:13:00,64.2,36.7,29.96,NNE,28,0.0,0.0,36,0.00,,CLR,0.63,VWS V14.01,2013-05-20 23:13:00,
2013-05-20 19:18:00,64.2,36.7,29.96,NNE,28,0.0,0.0,36,0.00,,CLR,0.63,VWS V14.01,2013-05-20 23:18:00,
2013-05-20 19:23:00,64.2,36.7,29.96,NNE,28,0.0,0.0,36,0.00,,CLR,0.63,VWS V14.01,2013-05-20 23:23:00,
2013-05-20 19:28:00,64.2,36.7,29.96,NNE,28,0.0,0.0,36,0.00,,CLR,0.63,VWS V14.01,2013-05-20 23:28:00,
2013-05-20 19:33:00,64.2,36.7,29.96,NNE,28,0.0,0.0,36,0.00,,CLR,0.63,VWS V14.01,2013-05-20 23:33:00,
2013-05-20 19:39:00,64.0,36.6,29.96,NNE,28,0.0,0.0,36,0.00,,CLR,0.63,VWS V14.01,2013-05-20 23:39:00,
2013-05-20 19:44:00,64.2,36.7,29.96,NNE,28,0.0,0.0,36,0.00,,CLR,0.63,VWS V14.01,2013-05-20 23:44:00,
2013-05-20 19:49:00,64.4,36.9,29.93,NNE,28,0.0,0.0,36,0.00,,CLR,0.63,VWS V14.01,2013-05-20 23:49:00,
2013-05-20 19:54:00,64.4,36.9,29.93,NNE,28,0.0,0.0,36,0.00,,CLR,0.63,VWS V14.01,2013-05-20 23:54:00,
2013-05-20 19:59:00,64.4,36.9,29.93,NNE,28,0.0,0.0,36,0.00,,CLR,0.63,VWS V14.01,2013-05-20 23:59:00,
2013-05-20 20:04:00,64.4,36.2,29.96,NNE,28,0.0,0.0,35,0.00,,CLR,0.63,VWS V14.01,2013-05-21 00:04:00,
2013-05-20 20:09:00,64.0,36.6,29.96,NNE,28,0.0,0.0,36,0.00,,CLR,0.63,VWS V14.01,2013-05-21 00:09:00,
2013-05-20 20:14:00,63.7,35.5,29.96,NNE,28,0.0,0.0,35,0.00,,CLR,0.63,VWS V14.01,2013-05-21 00:14:00,
2013-05-20 20:19:00,63.3,35.2,29.96,NNE,28,0.0,0.0,35,0.00,,CLR,0.63,VWS V14.01,2013-05-21 00:19:00,
2013-05-20 20:25:00,63.0,34.9,29.96,NNE,28,0.0,0.0,35,0.00,,CLR,0.63,VWS V14.01,2013-05-21 00:25:00,
2013-05-20 20:30:00,62.6,35.3,29.96,NNE,28,0.0,0.0,36,0.00,,CLR,0.63,VWS V14.01,2013-05-21 00:30:00,
2013-05-20 20:35:00,62.6,35.3,29.96,NNE,28,0.0,0.0,36,0.00,,CLR,0.63,VWS V14.01,2013-05-21 00:35:00,
2013-05-20 20:40:00,62.4,35.8,29.96,NNE,28,0.0,0.0,37,0.00,,CLR,0.63,VWS V14.01,2013-05-21 00:40:00,
2013-05-20 20:45:00,62.4,35.8,29.96,NNE,28,0.0,0.0,37,0.00,,CLR,0.63,VWS V14.01,2013-05-21 00:45:00,
2013-05-20 20:50:00,62.2,35.7,29.96,NNE,28,0.0,0.0,37,0.00,,CLR,0.63,VWS V14.01,2013-05-21 00:50:00,
2013-05-20 20:55:00,62.2,36.3,29.96,NNE,28,0.0,0.0,38,0.00,,CLR,0.63,VWS V14.01,2013-05-21 00:55:00,
2013-05-20 21:00:00,62.1,35.5,29.96,NNE,28,0.0,0.0,37,0.00,,CLR,0.63,VWS V14.01,2013-05-21 01:00:00,
2013-05-20 21:05:00,61.9,35.3,29.96,NNE,28,0.0,0.0,37,0.00,,CLR,0.63,VWS V14.01,2013-05-21 01:05:00,
2013-05-20 21:10:00,61.9,36.0,29.96,NNE,28,0.0,0.0,38,0.00,,CLR,0.63,VWS V14.01,2013-05-21 01:10:00,
2013-05-20 21:15:00,61.9,36.0,29.96,NNE,28,0.0,0.0,38,0.00,,CLR,0.63,VWS V14.01,2013-05-21 01:15:00,
2013-05-20 21:21:00,61.9,36.0,29.96,NNE,28,0.0,0.0,38,0.00,,CLR,0.63,VWS V14.01,2013-05-21 01:21:00,
2013-05-20 21:26:00,62.1,36.8,29.96,NNE,28,0.0,0.0,39,0.00,,CLR,0.63,VWS V14.01,2013-05-21 01:26:00,
2013-05-20 21:31:00,62.2,38.3,29.96,NNE,28,0.0,0.0,41,0.00,,CLR,0.63,VWS V14.01,2013-05-21 01:31:00,
2013-05-20 21:36:00,62.2,38.3,29.96,ENE,60,0.0,0.0,41,0.00,,CLR,0.63,VWS V14.01,2013-05-21 01:36:00,
2013-05-20 21:41:00,62.2,37.6,29.96,ENE,60,0.0,0.0,40,0.00,,CLR,0.63,VWS V14.01,2013-05-21 01:41:00,
2013-05-20 21:46:00,62.2,37.6,29.96,ENE,60,0.0,0.0,40,0.00,,CLR,0.63,VWS V14.01,2013-05-21 01:46:00,
2013-05-20 21:51:00,62.2,37.0,29.96,ENE,60,0.0,0.0,39,0.00,,CLR,0.63,VWS V14.01,2013-05-21 01:51:00,
2013-05-20 21:56:00,62.1,36.8,29.96,ENE,60,0.0,0.0,39,0.00,,CLR,0.63,VWS V14.01,2013-05-21 01:56:00,
2013-05-20 22:01:00,61.9,36.7,29.96,ENE,61,0.0,0.0,39,0.00,,CLR,0.63,VWS V14.01,2013-05-21 02:01:00,
2013-05-20 22:07:00,61.9,36.7,29.96,ENE,60,0.0,0.0,39,0.00,,CLR,0.63,VWS V14.01,2013-05-21 02:07:00,
2013-05-20 22:12:00,61.9,36.7,29.96,ENE,61,0.0,0.0,39,0.00,,CLR,0.63,VWS V14.01,2013-05-21 02:12:00,
2013-05-20 22:17:00,61.9,37.3,29.96,ENE,61,0.0,0.0,40,0.00,,CLR,0.63,VWS V14.01,2013-05-21 02:17:00,
2013-05-20 22:22:00,61.9,36.7,29.96,ENE,61,0.0,0.0,39,0.00,,CLR,0.63,VWS V14.01,2013-05-21 02:22:00,
2013-05-20 22:27:00,61.9,37.3,29.96,ENE,61,0.0,0.0,40,0.00,,CLR,0.63,VWS V14.01,2013-05-21 02:27:00,
2013-05-20 22:32:00,61.9,36.7,29.96,ENE,61,0.0,0.0,39,0.00,,CLR,0.63,VWS V14.01,2013-05-21 02:32:00,
2013-05-20 22:37:00,61.9,37.3,29.96,ENE,61,0.0,0.0,40,0.00,,CLR,0.63,VWS V14.01,2013-05-21 02:37:00,
2013-05-20 22:42:00,62.1,38.1,29.96,ENE,61,0.0,0.0,41,0.00,,CLR,0.63,VWS V14.01,2013-05-21 02:42:00,
2013-05-20 22:47:00,62.4,40.2,29.96,ENE,61,0.0,0.0,44,0.00,,CLR,0.63,VWS V14.01,2013-05-21 02:47:00,
2013-05-20 22:53:00,62.8,41.7,29.96,ENE,61,0.0,0.0,46,0.00,,CLR,0.63,VWS V14.01,2013-05-21 02:53:00,
2013-05-20 22:58:00,63.0,42.4,29.96,ENE,61,0.0,0.0,47,0.00,,CLR,0.63,VWS V14.01,2013-05-21 02:58:00,
2013-05-20 23:03:00,63.1,41.5,29.96,ENE,61,0.0,0.0,45,0.00,,CLR,0.63,VWS V14.01,2013-05-21 03:03:00,
2013-05-20 23:08:00,63.1,40.9,29.96,SE,127,0.0,0.0,44,0.00,,CLR,0.63,VWS V14.01,2013-05-21 03:08:00,
2013-05-20 23:13:00,63.0,40.7,29.96,SE,127,0.0,0.0,44,0.00,,CLR,0.63,VWS V14.01,2013-05-21 03:13:00,
2013-05-20 23:18:00,63.1,41.5,29.96,SE,127,0.0,0.0,45,0.00,,CLR,0.63,VWS V14.01,2013-05-21 03:18:00,
2013-05-20 23:23:00,63.3,41.6,29.96,SE,127,0.0,0.0,45,0.00,,CLR,0.63,VWS V14.01,2013-05-21 03:23:00,
2013-05-20 23:28:00,63.1,40.9,29.96,SE,127,0.0,0.0,44,0.00,,CLR,0.63,VWS V14.01,2013-05-21 03:28:00,
2013-05-20 23:33:00,63.1,40.9,29.96,SE,127,0.0,0.0,44,0.00,,CLR,0.63,VWS V14.01,2013-05-21 03:33:00,
2013-05-20 23:38:00,63.1,40.3,29.96,SE,127,0.0,0.0,43,0.00,,CLR,0.63,VWS V14.01,2013-05-21 03:38:00,
2013-05-20 23:43:00,63.1,40.3,29.96,SE,126,0.0,0.0,43,0.00,,CLR,0.63,VWS V14.01,2013-05-21 03:43:00,
2013-05-20 23:49:00,63.0,40.1,29.96,SE,126,0.0,0.0,43,0.00,,CLR,0.63,VWS V14.01,2013-05-21 03:49:00,
2013-05-20 23:54:00,63.0,40.1,29.96,SE,126,0.0,0.0,43,0.00,,CLR,0.63,VWS V14.01,2013-05-21 03:54:00,
2013-05-20 23:59:00,63.0,40.1,29.96,SE,126,0.0,0.0,43,0.00,,CLR,0.63,VWS V14.01,2013-05-21 03:59:00,